Hourly Data Report for March 04, 2019

TORONTO CITY
ONTARIO
Current Station Operator: ECCC - MSC

43°40'00.000" N
79°24'00.000" W
112.50 m
6158355
71508
XTO

Download Data

Hourly Data (March 2019)
Hourly Data Report for March 4, 2019
TIME
LST
Temp Definition
°C
Dew Point Definition
°C
Rel Hum Definition
%
Precip. Amount Definition
mm

Wind Dir Definition
10's deg

Wind Spd Definition
km/h
Visibility Definition
km
Stn Press Definition
kPa
Hmdx Definition


Wind Chill Definition


Weather Definition


00:00 -6.8 -10.7 73 0.0       100.12     LegendNANA
01:00 -7.7 -12.1 71 0.0       100.14     LegendNANA
02:00 -8.5 -13.0 70 0.0       100.15     LegendNANA
03:00 -9.2 -14.5 65 0.0       100.12     LegendNANA
04:00 -9.8 -15.3 64 0.0       100.11     LegendNANA
05:00 -10.3 -15.2 68 0.0       100.14     LegendNANA
06:00 -11.1 -15.4 70 0.0       100.16     LegendNANA
07:00 -11.3 -15.4 71 0.0       100.17     LegendNANA
08:00 -11.1 -15.0 73 0.2       100.23     LegendNANA
09:00 -9.7 -15.7 62 0.0       100.25     LegendNANA
10:00 -8.4 -16.4 52 0.0       100.22     LegendNANA
11:00 -7.7 -15.6 53 0.0       100.20     LegendNANA
12:00 -7.0 -15.3 51 0.0       100.13     LegendNANA
13:00 -7.5 -12.5 67 0.0       100.09     LegendNANA
14:00 -7.0 -15.8 49 0.0 LegendMM LegendMM   100.05     LegendNANA
15:00 -8.0 -18.9 41 0.0 LegendMM LegendMM   100.07     LegendNANA
16:00 -8.6 -18.3 45 0.0 LegendMM LegendMM   100.12     LegendNANA
17:00 -9.0 -18.2 47 0.0 LegendMM LegendMM   100.13     LegendNANA
18:00 -8.9 -17.8 48 0.0 LegendMM LegendMM   100.16     LegendNANA
19:00 -9.5 -16.1 58 0.0 LegendMM LegendMM   100.20     LegendNANA
20:00 -9.6 -16.0 60 0.0 LegendMM LegendMM   100.22     LegendNANA
21:00 -10.0 -16.0 62 0.0 LegendMM LegendMM   100.23     LegendNANA
22:00 -10.6 -16.0 65 0.0 LegendMM LegendMM   100.24     LegendNANA
23:00 -11.0 -16.1 66 0.0 LegendMM LegendMM   100.25     LegendNANA

Notes on Data Quality.

Legend

  • E = Estimated
  • M = Missing
  • NA = Not Available*
  • [empty] = Indicates an unobserved value
Date modified: